Wind_Speed
8 7 11 13 15 8 3 5 9 4 3 4 11 18 20 21 22 19 9 3 3 5 9 10 13 15 15 15 15 13 12 9 9 8 8 9 6 6 6 5 7 5 6 6
4 12 12 1 8 7 8 9 11 6 1 3 11 19 24 17 10 4 3 4 6 8 11 12 14 15 15 15 14 13 11 8 9 8 7 8 6 4 4 4 5 5 5 7
10 2 0 9 7 9 10 11 9 6 4 10 11 12 10 3 3 4 5 4 6 10 13 14 15 15 15 15 14 13 9 9 9 6 7 6 4 3 3 4 4 6 5 5
10 6 5 8 10 11 9 3 8 5 3 4 1 6 12 2 5 6 8 8 7 10 12 14 15 15 14 14 14 12 9 9 8 4 5 5 1 1 3 1 3 5 5 5
6 9 10 8 3 11 1 2 4 2 4 5 5 5 5 3 5 5 7 9 8 9 13 14 14 14 14 15 13 11 9 9 6 4 4 4 2 3 1 2 3 5 4 5
3 1 3 0 4 1 9 5 4 2 1 3 3 4 4 4 4 6 4 7 8 9 11 13 13 15 15 15 13 10 9 9 6 5 4 4 3 3 1 2 1 2 2 3
3 3 2 3 6 4 5 6 1 1 1 4 2 4 10 9 6 5 2 6 7 9 11 13 16 17 15 14 12 10 9 9 6 6 5 5 4 4 3 1 1 2 1 1
8 5 10 9 2 4 11 3 3 4 3 2 2 5 1 6 5 2 1 3 6 7 9 12 14 15 14 13 11 10 10 10 7 6 5 5 5 5 5 3 3 2 2 1
7 6 1 1 1 0 6 6 2 4 2 1 5 6 4 9 10 10 5 4 3 6 8 10 12 13 14 14 12 10 10 11 8 6 6 6 6 5 4 3 5 4 4 2
6 4 2 2 1 2 3 1 3 1 4 5 3 6 5 10 12 11 10 9 5 3 7 9 12 14 14 14 12 12 11 12 9 7 7 8 8 6 5 3 3 4 3 3
4 1 2 2 7 9 4 4 4 2 2 3 2 3 8 14 11 12 10 11 10 4 5 10 13 14 15 15 14 12 11 12 10 8 9 9 9 8 7 4 4 4 4 3
5 4 4 4 0 2 3 6 9 4 4 1 2 2 9 10 8 11 13 9 10 8 2 7 13 16 17 17 17 15 12 12 12 10 10 10 11 10 9 7 6 6 6 6
10 5 5 2 1 2 6 9 7 4 0 6 5 3 4 9 1 2 7 10 11 10 8 3 9 16 18 19 19 18 15 13 13 12 10 11 12 11 10 8 7 7 7 8
8 1 3 8 3 5 6 10 14 8 4 6 8 1 6 6 6 3 6 9 9 9 8 7 6 11 17 20 21 21 18 15 15 14 12 12 13 13 12 9 8 6 7 8
6 4 2 2 3 2 3 4 10 11 14 9 4 10 8 5 7 6 6 8 8 9 8 8 8 7 11 17 21 21 20 18 16 16 13 12 14 14 13 11 8 7 7 9
5 2 2 2 2 3 1 3 6 5 4 6 5 7 11 18 10 11 11 10 9 11 12 10 8 8 9 11 16 21 21 19 18 17 15 13 15 14 13 11 8 7 9 8
11 5 3 4 2 1 6 9 10 6 6 8 10 13 7 6 3 7 6 7 9 12 13 11 10 9 9 11 13 19 21 21 20 18 16 15 15 15 13 11 9 10 10 10
7 6 2 3 3 7 2 3 7 12 7 13 8 4 7 8 1 6 6 7 9 13 17 18 14 10 9 9 12 14 20 22 22 20 18 16 16 15 13 10 9 11 11 14
5 5 4 3 7 6 5 5 6 7 3 12 13 9 5 7 15 9 8 8 10 14 17 19 20 16 13 8 6 12 17 21 23 22 20 16 17 16 14 12 13 13 13 15
3 3 5 4 6 8 3 6 4 4 5 10 10 6 12 18 6 4 6 10 12 15 18 20 20 20 15 12 6 6 11 18 23 23 20 16 17 17 16 14 17 16 15 15
5 4 9 8 6 4 5 8 9 7 1 17 12 9 16 4 7 8 8 11 13 15 17 19 21 23 22 19 12 7 6 12 15 21 20 19 19 18 17 17 20 19 18 16
9 10 6 3 9 10 15 6 7 7 15 15 12 12 15 14 12 10 9 10 13 16 18 19 21 22 23 23 20 14 7 6 13 19 21 20 20 21 21 20 23 24 22 21
8 7 6 8 4 3 16 0 7 11 16 13 15 14 15 13 10 8 8 10 13 15 17 19 21 21 20 21 22 21 16 8 9 17 20 21 21 23 23 23 24 27 25 22
5 2 2 3 5 5 8 5 11 13 14 16 17 17 14 13 9 6 7 9 10 12 14 17 20 21 21 21 21 20 19 13 10 11 18 21 22 24 24 25 25 26 27 24
3 10 5 1 1 2 5 7 13 16 21 22 18 15 12 9 6 4 4 6 9 11 12 14 16 19 22 21 20 19 19 16 10 11 13 21 23 24 26 26 26 26 25 23
7 5 8 5 12 7 11 15 18 23 25 21 18 14 10 6 2 2 5 7 9 11 13 14 15 17 19 20 18 17 16 16 13 10 16 19 23 24 26 27 26 28 28 26
Wind_Direction
194 213 212 213 222 259 276 259 261 246 120 294 273 285 290 284 275 278 277 204 173 156 165 166 167 177 183 192 203 208 217 225 248 263 285 306 296 305 299 324 353 348 31 50
184 233 236 222 218 232 245 257 267 274 196 250 289 288 287 286 273 232 186 172 160 155 152 158 164 174 180 190 196 203 211 227 245 261 301 293 289 279 281 353 24 21 42 66
218 26 351 190 186 207 229 245 265 276 313 241 285 262 272 181 212 194 202 169 152 165 159 159 166 170 176 183 193 203 212 233 247 280 298 296 284 298 336 9 9 27 36 23
234 164 161 188 210 212 239 248 247 264 274 286 294 294 298 261 262 179 179 181 160 160 162 164 170 174 176 183 193 204 217 235 254 286 302 276 229 246 256 38 28 22 30 23
184 184 191 195 191 191 80 136 175 207 239 309 205 255 256 213 293 49 162 162 156 165 171 169 175 177 179 193 196 208 223 240 262 282 285 251 194 236 225 32 22 18 23 7
72 52 217 114 99 79 139 122 110 107 272 247 215 251 263 348 29 72 111 156 154 160 167 168 171 178 191 196 202 214 228 251 273 287 274 236 192 213 141 59 61 34 24 4
150 170 149 180 117 116 207 180 30 258 176 248 128 207 265 349 29 348 28 157 161 167 170 173 180 185 197 200 209 220 231 253 271 279 270 234 202 201 168 221 246 130 54 34
170 213 180 170 244 193 194 227 204 232 200 106 125 232 221 352 316 301 218 88 158 169 175 186 191 191 204 207 212 223 232 248 260 269 267 240 217 206 196 231 264 206 118 25
181 194 109 55 341 251 173 213 41 97 74 278 215 240 141 50 53 61 67 80 158 181 186 192 193 198 208 213 216 224 234 246 253 258 254 240 227 218 209 225 258 228 175 151
181 125 353 73 262 199 260 175 138 201 201 226 186 262 227 74 71 71 57 49 47 192 190 196 206 209 216 221 219 222 233 246 249 252 249 232 228 224 214 200 249 267 184 159
128 131 105 174 210 186 160 192 220 223 238 247 216 184 119 114 90 76 63 52 47 46 195 212 217 221 227 230 230 225 231 248 252 249 251 230 222 224 213 208 212 254 267 226
157 94 152 187 87 310 312 229 197 195 193 247 2 112 156 131 91 55 48 32 25 22 17 226 226 231 233 234 236 234 232 246 252 247 249 235 225 220 229 227 234 245 248 236
173 176 128 117 196 198 222 206 227 232 66 193 188 197 198 172 204 344 8 11 347 354 2 316 235 234 236 237 239 240 236 242 253 248 246 241 222 219 232 237 239 242 231 225
164 104 192 196 109 123 189 210 204 194 192 192 228 51 198 231 240 329 18 349 359 353 339 330 294 251 241 239 240 242 240 238 251 253 248 240 223 216 230 244 252 234 237 218
193 189 129 66 67 128 193 172 193 203 211 210 199 220 235 267 320 147 21 14 10 351 337 321 298 280 258 245 241 241 241 236 244 252 248 246 229 219 228 241 247 239 230 216
184 136 127 125 46 28 308 181 192 208 236 273 285 271 261 287 307 350 20 13 5 348 331 322 308 291 276 261 248 243 240 238 236 245 246 237 230 224 226 237 229 234 219 208
174 144 147 191 100 209 271 196 188 189 206 201 226 246 232 273 292 330 6 8 2 358 351 342 322 304 296 271 249 243 238 236 233 234 241 238 223 223 228 226 222 230 207 182
170 141 84 118 167 226 71 108 204 208 216 219 245 217 274 283 189 98 46 30 13 8 10 12 3 333 314 296 255 239 234 234 230 230 230 242 221 217 221 207 213 193 189 173
150 138 137 204 216 304 186 191 179 178 228 215 227 236 222 151 136 83 54 47 31 20 16 14 16 5 341 329 275 249 241 233 230 228 227 235 225 216 212 202 199 188 178 171
105 215 195 172 214 215 189 143 152 151 246 166 164 154 146 156 157 109 64 61 49 34 25 20 18 19 3 351 332 268 255 244 237 230 231 225 230 216 210 203 199 195 187 186
159 164 205 189 219 262 150 132 147 185 146 150 153 134 161 150 82 119 86 63 47 31 24 20 18 15 11 12 354 328 272 254 243 237 234 229 223 216 211 204 201 202 200 200
171 176 185 182 209 233 151 139 196 119 126 138 135 126 117 117 118 104 77 54 41 34 26 18 17 14 10 6 4 353 320 261 239 232 229 231 224 213 212 209 208 206 211 212
200 203 178 203 208 81 178 278 163 146 145 144 140 136 133 125 114 102 71 45 30 18 15 14 13 10 9 6 0 1 349 292 233 230 225 226 226 221 213 214 215 216 213 217
221 98 173 122 185 181 183 166 168 158 154 146 147 141 136 126 118 97 57 36 23 15 6 358 355 360 2 2 357 354 351 337 261 235 228 227 228 223 218 218 218 227 223 220
171 153 151 232 204 128 197 179 167 156 156 148 143 141 135 129 107 79 35 7 356 353 352 350 345 341 346 350 350 345 345 345 311 226 230 234 229 227 224 224 222 228 228 229
184 161 187 207 172 196 189 182 178 169 163 162 161 149 137 125 98 346 326 328 326 326 324 323 323 326 327 334 339 339 334 334 329 279 222 227 239 231 227 226 228 224 223 228
Height
1491 1488 1481 1479 1479 1474 1478 1477 1477 1472 1479 1482 1471 1463 1454 1453 1448 1448 1450 1453 1454 1455 1458 1459 1461 1464 1467 1469 1472 1474 1477 1478 1478 1478 1477 1476 1475 1474 1473 1472 1473 1471 1468 1467
1492 1481 1473 1475 1476 1483 1483 1482 1476 1473 1481 1481 1468 1461 1444 1442 1442 1446 1450 1451 1453 1455 1456 1458 1459 1462 1465 1467 1470 1473 1475 1476 1476 1476 1478 1476 1475 1474 1474 1473 1470 1470 1470 1469
1479 1479 1476 1478 1480 1484 1482 1480 1474 1480 1480 1475 1477 1454 1438 1441 1443 1444 1449 1451 1452 1455 1456 1457 1459 1462 1465 1467 1470 1473 1475 1475 1475 1475 1476 1474 1475 1475 1475 1473 1474 1473 1473 1472
1476 1478 1479 1478 1477 1479 1477 1477 1479 1483 1483 1475 1474 1464 1439 1433 1436 1442 1445 1450 1452 1454 1456 1457 1460 1463 1465 1466 1469 1472 1474 1474 1474 1475 1475 1475 1474 1476 1475 1474 1474 1474 1474 1473
1471 1477 1480 1477 1473 1477 1477 1483 1482 1483 1481 1483 1470 1476 1442 1434 1432 1433 1441 1447 1450 1454 1456 1456 1460 1463 1465 1466 1469 1472 1473 1473 1473 1473 1473 1474 1474 1474 1475 1475 1475 1474 1474 1474
1474 1478 1478 1474 1480 1481 1485 1485 1485 1485 1484 1490 1470 1472 1446 1436 1444 1442 1445 1448 1451 1453 1456 1457 1460 1462 1463 1466 1468 1471 1473 1473 1474 1474 1474 1473 1473 1474 1475 1476 1474 1473 1474 1474
1474 1475 1479 1478 1479 1483 1485 1481 1500 1497 1499 1479 1481 1482 1444 1442 1447 1448 1446 1447 1451 1453 1456 1458 1458 1460 1462 1464 1468 1470 1471 1471 1473 1474 1474 1473 1473 1474 1474 1475 1473 1472 1473 1474
1469 1477 1474 1474 1472 1471 1479 1474 1474 1477 1475 1465 1485 1472 1444 1447 1448 1449 1450 1448 1450 1454 1455 1457 1458 1460 1462 1464 1466 1468 1469 1469 1470 1472 1473 1474 1473 1473 1473 1475 1475 1473 1472 1474
1460 1462 1476 1477 1477 1476 1479 1481 1476 1487 1506 1479 1454 1448 1446 1447 1448 1448 1451 1449 1450 1454 1455 1457 1459 1459 1460 1462 1464 1466 1467 1468 1468 1470 1471 1472 1473 1473 1473 1474 1475 1473 1472 1473
1452 1469 1480 1479 1479 1479 1476 1475 1477 1478 1482 1476 1456 1453 1437 1452 1452 1452 1453 1452 1451 1453 1454 1457 1459 1459 1460 1461 1462 1464 1466 1467 1467 1468 1468 1470 1471 1472 1472 1473 1474 1475 1473 1473
1453 1452 1482 1480 1477 1469 1475 1472 1472 1466 1468 1464 1460 1446 1446 1450 1453 1453 1456 1455 1453 1454 1453 1454 1457 1457 1458 1460 1460 1462 1464 1464 1465 1466 1467 1468 1469 1471 1472 1473 1473 1474 1475 1474
1448 1451 1465 1470 1473 1473 1471 1462 1460 1459 1473 1469 1475 1452 1449 1451 1455 1456 1457 1457 1456 1455 1453 1454 1455 1455 1456 1457 1458 1460 1461 1462 1463 1464 1465 1466 1468 1469 1470 1472 1472 1473 1474 1474
1443 1450 1462 1469 1473 1474 1471 1463 1460 1454 1462 1473 1467 1450 1451 1453 1456 1458 1458 1457 1456 1454 1453 1453 1453 1452 1453 1453 1455 1457 1459 1461 1461 1462 1464 1464 1466 1468 1469 1470 1471 1472 1473 1474
1439 1447 1441 1433 1437 1446 1466 1459 1456 1459 1463 1458 1456 1453 1453 1455 1457 1457 1456 1455 1454 1453 1452 1452 1451 1450 1450 1450 1451 1453 1456 1458 1459 1460 1462 1462 1464 1466 1468 1469 1470 1470 1471 1473
1438 1443 1451 1454 1449 1448 1450 1459 1458 1459 1451 1456 1451 1457 1446 1448 1452 1456 1454 1453 1451 1451 1450 1450 1449 1448 1447 1447 1447 1448 1452 1455 1456 1457 1459 1462 1463 1464 1466 1467 1468 1469 1470 1471
1440 1445 1451 1456 1459 1459 1455 1453 1461 1463 1462 1462 1461 1459 1449 1448 1450 1452 1452 1451 1451 1451 1449 1447 1446 1445 1444 1443 1444 1445 1447 1450 1452 1454 1455 1457 1461 1462 1463 1465 1467 1468 1469 1470
1435 1446 1448 1442 1460 1460 1451 1449 1451 1454 1455 1451 1456 1444 1446 1448 1451 1453 1453 1454 1453 1451 1448 1445 1444 1443 1441 1440 1439 1440 1442 1446 1448 1451 1452 1455 1457 1461 1462 1463 1465 1466 1468 1469
1431 1438 1447 1446 1456 1448 1432 1435 1437 1440 1442 1446 1441 1444 1446 1448 1452 1454 1453 1452 1452 1450 1447 1444 1441 1440 1438 1436 1436 1437 1438 1441 1445 1447 1449 1452 1455 1458 1460 1462 1464 1466 1467 1469
1429 1438 1444 1442 1443 1432 1432 1436 1438 1438 1431 1436 1439 1441 1443 1448 1452 1454 1452 1452 1451 1450 1448 1445 1442 1439 1438 1434 1433 1434 1435 1437 1442 1444 1446 1450 1453 1457 1459 1461 1464 1466 1468 1470
1436 1438 1440 1449 1438 1433 1417 1430 1433 1434 1433 1432 1436 1439 1441 1445 1445 1453 1453 1452 1451 1451 1449 1447 1443 1441 1438 1434 1432 1431 1432 1435 1440 1443 1445 1447 1451 1455 1458 1461 1463 1466 1468 1471
1435 1438 1433 1436 1432 1428 1424 1429 1431 1435 1428 1428 1434 1439 1441 1444 1447 1452 1452 1452 1453 1451 1449 1449 1445 1441 1439 1435 1433 1431 1430 1432 1438 1442 1445 1446 1450 1453 1457 1459 1462 1465 1468 1470
1421 1426 1429 1434 1430 1429 1422 1430 1426 1424 1428 1431 1436 1439 1442 1446 1449 1450 1452 1454 1453 1450 1451 1448 1445 1443 1440 1436 1434 1431 1430 1431 1434 1438 1441 1444 1447 1450 1454 1458 1460 1463 1466 1468
1417 1409 1414 1417 1415 1417 1417 1420 1422 1425 1427 1432 1435 1440 1443 1446 1449 1451 1452 1452 1452 1451 1449 1448 1446 1445 1442 1438 1436 1432 1430 1430 1430 1434 1437 1441 1445 1448 1451 1454 1457 1460 1462 1465
1412 1413 1415 1419 1415 1416 1419 1421 1422 1426 1428 1432 1436 1439 1443 1445 1448 1450 1450 1451 1451 1450 1449 1447 1446 1444 1442 1440 1437 1434 1432 1430 1429 1431 1435 1438 1441 1444 1448 1451 1455 1458 1460 1462
1406 1412 1416 1416 1417 1417 1418 1420 1422 1425 1428 1432 1437 1440 1442 1444 1446 1447 1448 1449 1450 1449 1449 1449 1447 1445 1443 1441 1438 1435 1433 1431 1431 1428 1431 1435 1437 1441 1444 1448 1451 1454 1457 1460
1402 1403 1406 1405 1407 1410 1413 1417 1421 1423 1427 1431 1434 1438 1441 1443 1445 1447 1448 1448 1449 1449 1449 1448 1447 1445 1443 1440 1438 1436 1434 1432 1430 1429 1428 1431 1434 1437 1440 1444 1447 1450 1453 1455